When you browse on this site, cookies collect data to enhance your experience and personalize the content and advertising you see.
Visit our Privacy Policy to learn more. By continuing to use the site, you agree to this use of cookies and data.
  • In Österreich
  • Länderverzeichnis
  • Für 7 Tage
  • Wassertemperatur
  • Satellitenkarten
  • Wetterkarte
  • News
  • Widgets
  • user-avatar
    Anmelden

    Stündliche Wetter Rohove

    Heute, 25 April, Donnerstag

    Zeit Temperatur Niederschläge Wind Luftdruck Luftfeuchtigkeit
    00:00 +8°C° 0 mm 2 m/S 764 mmHg 80%
    01:00 +8°C° 0 mm 2 m/S 764 mmHg 81%
    02:00 +8°C° 0 mm 1 m/S 763 mmHg 82%
    03:00 +8°C° 0 mm 1 m/S 764 mmHg 82%
    04:00 +8°C° 0 mm 1 m/S 764 mmHg 81%
    05:00 +8°C° 0 mm 1 m/S 764 mmHg 81%
    06:00 +10°C° 0 mm 1 m/S 764 mmHg 72%
    07:00 +12°C° 0 mm 1 m/S 764 mmHg 63%
    08:00 +15°C° 0 mm 1 m/S 764 mmHg 54%
    09:00 +16°C° 0 mm 1 m/S 764 mmHg 47%
    10:00 +19°C° 0 mm 1 m/S 764 mmHg 41%
    11:00 +20°C° 0 mm 2 m/S 764 mmHg 34%
    12:00 +20°C° 0 mm 2 m/S 764 mmHg 34%
    13:00 +21°C° 0 mm 2 m/S 763 mmHg 33%
    14:00 +21°C° 0 mm 2 m/S 763 mmHg 33%
    15:00 +20°C° 0 mm 3 m/S 763 mmHg 37%
    16:00 +20°C° 0 mm 3 m/S 763 mmHg 42%
    17:00 +19°C° 0 mm 3 m/S 763 mmHg 46%
    18:00 +17°C° 0 mm 3 m/S 762 mmHg 54%
    19:00 +13°C° 0 mm 3 m/S 762 mmHg 61%
    20:00 +12°C° 0 mm 2 m/S 762 mmHg 69%
    21:00 +12°C° 0 mm 2 m/S 762 mmHg 69%
    22:00 +11°C° 0 mm 1 m/S 762 mmHg 68%
    23:00 +10°C° 0 mm 1 m/S 762 mmHg 68%

    Morgen, 26 April, Freitag

    Zeit Temperatur Niederschläge Wind Luftdruck Luftfeuchtigkeit
    00:00 +10°C° 0 mm 1 m/S 762 mmHg 67%
    01:00 +10°C° 0 mm 1 m/S 761 mmHg 67%
    02:00 +10°C° 0 mm 1 m/S 761 mmHg 66%
    03:00 +9°C° 0 mm 1 m/S 761 mmHg 66%
    04:00 +9°C° 0 mm 1 m/S 761 mmHg 66%
    05:00 +9°C° 0 mm 1 m/S 761 mmHg 66%
    06:00 +11°C° 0 mm 1 m/S 761 mmHg 60%
    07:00 +13°C° 0 mm 2 m/S 761 mmHg 54%
    08:00 +15°C° 0 mm 2 m/S 761 mmHg 48%
    09:00 +17°C° 0 mm 2 m/S 761 mmHg 45%
    10:00 +19°C° 0 mm 2 m/S 761 mmHg 42%
    11:00 +20°C° 0 mm 2 m/S 761 mmHg 39%
    12:00 +21°C° 0 mm 2 m/S 760 mmHg 38%
    13:00 +23°C° 0 mm 2 m/S 760 mmHg 37%
    14:00 +23°C° 0 mm 2 m/S 760 mmHg 36%
    15:00 +23°C° 0 mm 2 m/S 759 mmHg 39%
    16:00 +21°C° 0 mm 2 m/S 759 mmHg 42%
    17:00 +21°C° 0 mm 2 m/S 759 mmHg 45%
    18:00 +19°C° 0 mm 2 m/S 759 mmHg 52%
    19:00 +16°C° 0 mm 2 m/S 759 mmHg 58%
    20:00 +14°C° 0 mm 2 m/S 759 mmHg 65%
    21:00 +13°C° 0 mm 1 m/S 759 mmHg 66%
    22:00 +13°C° 0 mm 1 m/S 758 mmHg 68%
    23:00 +12°C° 0 mm 1 m/S 758 mmHg 70%

    übermorgen, 27 April, Samstag

    Zeit Temperatur Niederschläge Wind Luftdruck Luftfeuchtigkeit
    00:00 +12°C° 0 mm 1 m/S 758 mmHg 70%
    01:00 +11°C° 0 mm 1 m/S 758 mmHg 70%
    02:00 +11°C° 0 mm 1 m/S 758 mmHg 71%
    03:00 +11°C° 0 mm 1 m/S 758 mmHg 71%
    04:00 +11°C° 0 mm 1 m/S 757 mmHg 70%
    05:00 +11°C° 0 mm 1 m/S 757 mmHg 70%
    06:00 +13°C° 0 mm 1 m/S 757 mmHg 64%
    07:00 +15°C° 0 mm 1 m/S 757 mmHg 58%
    08:00 +18°C° 0 mm 1 m/S 757 mmHg 52%
    09:00 +20°C° 0 mm 1 m/S 757 mmHg 48%
    10:00 +21°C° 0 mm 2 m/S 757 mmHg 45%
    11:00 +23°C° 0 mm 2 m/S 757 mmHg 41%
    12:00 +24°C° 0 mm 2 m/S 757 mmHg 40%
    13:00 +24°C° 0 mm 2 m/S 756 mmHg 39%
    14:00 +24°C° 0 mm 2 m/S 756 mmHg 38%
    15:00 +23°C° 0 mm 2 m/S 755 mmHg 43%
    16:00 +21°C° 0 mm 2 m/S 755 mmHg 47%
    17:00 +20°C° 0 mm 2 m/S 755 mmHg 52%
    18:00 +18°C° 0 mm 2 m/S 755 mmHg 58%
    19:00 +16°C° 0 mm 2 m/S 755 mmHg 63%
    20:00 +14°C° 0 mm 1 m/S 755 mmHg 69%
    21:00 +14°C° 0 mm 1 m/S 754 mmHg 71%
    22:00 +13°C° 0 mm 1 m/S 754 mmHg 72%
    23:00 +11°C° 0 mm 0 m/S 754 mmHg 74%

    28 April, Sonntag

    Zeit Temperatur Niederschläge Wind Luftdruck Luftfeuchtigkeit
    00:00 +11°C° 0 mm 0 m/S 754 mmHg 76%
    01:00 +11°C° 0 mm 0 m/S 753 mmHg 77%
    02:00 +11°C° 0 mm 0 m/S 753 mmHg 78%
    03:00 +10°C° 0 mm 0 m/S 753 mmHg 79%
    04:00 +10°C° 0 mm 0 m/S 753 mmHg 80%
    05:00 +10°C° 0 mm 0 m/S 753 mmHg 82%
    06:00 +13°C° 0 mm 1 m/S 753 mmHg 74%
    07:00 +16°C° 0 mm 1 m/S 753 mmHg 66%
    08:00 +19°C° 0 mm 1 m/S 753 mmHg 59%
    09:00 +20°C° 0 mm 1 m/S 753 mmHg 53%
    10:00 +22°C° 0 mm 1 m/S 753 mmHg 48%
    11:00 +23°C° 0 mm 2 m/S 753 mmHg 42%
    12:00 +23°C° 0 mm 2 m/S 753 mmHg 43%
    13:00 +24°C° 0 mm 3 m/S 753 mmHg 44%
    14:00 +23°C° 0 mm 4 m/S 753 mmHg 45%
    15:00 +21°C° 0 mm 4 m/S 752 mmHg 49%
    16:00 +20°C° 0 mm 4 m/S 752 mmHg 53%
    17:00 +19°C° 0 mm 4 m/S 752 mmHg 57%
    18:00 +17°C° 0 mm 3 m/S 752 mmHg 60%
    19:00 +14°C° 0 mm 3 m/S 752 mmHg 64%
    20:00 +14°C° 0 mm 2 m/S 752 mmHg 67%
    21:00 +13°C° 0 mm 2 m/S 752 mmHg 69%
    22:00 +12°C° 0 mm 1 m/S 752 mmHg 70%
    23:00 +12°C° 0 mm 1 m/S 752 mmHg 72%

    29 April, Montag

    Zeit Temperatur Niederschläge Wind Luftdruck Luftfeuchtigkeit
    00:00 +12°C° 0 mm 1 m/S 752 mmHg 74%
    01:00 +11°C° 0 mm 1 m/S 752 mmHg 75%
    02:00 +11°C° 0 mm 1 m/S 752 mmHg 76%
    03:00 +11°C° 0 mm 1 m/S 752 mmHg 77%
    04:00 +11°C° 0 mm 1 m/S 752 mmHg 79%
    05:00 +11°C° 0 mm 1 m/S 752 mmHg 80%
    06:00 +13°C° 0 mm 1 m/S 752 mmHg 71%
    07:00 +15°C° 0 mm 2 m/S 752 mmHg 63%
    08:00 +17°C° 0 mm 2 m/S 752 mmHg 55%
    09:00 +19°C° 0 mm 2 m/S 753 mmHg 52%
    10:00 +20°C° 0 mm 3 m/S 753 mmHg 49%
    11:00 +22°C° 0 mm 3 m/S 753 mmHg 47%
    12:00 +22°C° 0 mm 3 m/S 753 mmHg 47%
    13:00 +23°C° 0 mm 4 m/S 752 mmHg 46%
    14:00 +23°C° 0 mm 4 m/S 752 mmHg 46%
    15:00 +22°C° 0 mm 4 m/S 752 mmHg 49%
    16:00 +21°C° 0 mm 4 m/S 752 mmHg 53%
    17:00 +21°C° 0 mm 3 m/S 752 mmHg 56%
    18:00 +18°C° 0 mm 3 m/S 752 mmHg 63%
    19:00 +16°C° 0 mm 2 m/S 752 mmHg 70%
    20:00 +14°C° 0 mm 1 m/S 752 mmHg 77%
    21:00 +14°C° 0 mm 1 m/S 752 mmHg 76%
    22:00 +14°C° 0 mm 1 m/S 752 mmHg 76%
    23:00 +13°C° 0 mm 1 m/S 751 mmHg 76%

    30 April, Dienstag

    Zeit Temperatur Niederschläge Wind Luftdruck Luftfeuchtigkeit
    00:00 +13°C° 0 mm 1 m/S 751 mmHg 76%
    01:00 +13°C° 0 mm 1 m/S 751 mmHg 76%
    02:00 +13°C° 0 mm 1 m/S 751 mmHg 76%
    03:00 +13°C° 0 mm 1 m/S 751 mmHg 74%
    04:00 +13°C° 0 mm 1 m/S 751 mmHg 73%
    05:00 +13°C° 0 mm 1 m/S 751 mmHg 71%
    06:00 +15°C° 0 mm 1 m/S 751 mmHg 65%
    07:00 +17°C° 0 mm 2 m/S 751 mmHg 58%
    08:00 +19°C° 0 mm 2 m/S 751 mmHg 52%
    09:00 +21°C° 0 mm 2 m/S 751 mmHg 47%
    10:00 +24°C° 0 mm 3 m/S 751 mmHg 43%
    11:00 +26°C° 0 mm 3 m/S 751 mmHg 39%
    12:00 +26°C° 0 mm 3 m/S 751 mmHg 38%
    13:00 +26°C° 0 mm 4 m/S 750 mmHg 37%
    14:00 +27°C° 0 mm 4 m/S 750 mmHg 36%
    15:00 +26°C° 0 mm 4 m/S 750 mmHg 40%
    16:00 +25°C° 0 mm 3 m/S 750 mmHg 44%
    17:00 +24°C° 0 mm 3 m/S 749 mmHg 48%
    18:00 +21°C° 0 mm 2 m/S 749 mmHg 54%
    19:00 +19°C° 0 mm 2 m/S 749 mmHg 59%
    20:00 +16°C° 0 mm 1 m/S 749 mmHg 65%
    21:00 +16°C° 0 mm 1 m/S 749 mmHg 65%
    22:00 +15°C° 0 mm 1 m/S 749 mmHg 64%
    23:00 +15°C° 0 mm 1 m/S 748 mmHg 63%
    Mehr zeigen